Wetterdaten: aktuell Mittwoch, 21.02.2024 17:38
Datum Zeit Temp. A. Temp. A. min Feuchte A. Luftdruck Regen Wind Richtung Richtung Sonnenschein Solar Taupunkt Windchill Windben
21.02.2024 17:38 11,4 C 11,4 C 63 % 1014,0 hPa 0,0 l/m 0,1 km/h (0 Bft) NW 321 0 min 0 W/m 4,6 C 11,4 C 1,6 km/h (1 Bft)
21.02.2024 17:30 11,5 C 11,4 C 63 % 1014,1 hPa 0,0 l/m 0,0 km/h (0 Bft) N-NW 338 0 min 0 W/m 4,7 C 11,5 C 0,0 km/h (0 Bft)
21.02.2024 17:25 11,5 C 11,4 C 63 % 1014,2 hPa 0,0 l/m 0,0 km/h (0 Bft) W-NW 294 0 min 0 W/m 4,7 C 11,5 C 0,0 km/h (0 Bft)
21.02.2024 17:20 11,4 C 11,4 C 62 % 1014,2 hPa 0,0 l/m 0,0 km/h (0 Bft) NW 314 0 min 0 W/m 4,4 C 11,4 C 0,0 km/h (0 Bft)
21.02.2024 17:18 11,6 C 11,5 C 63 % 1014,3 hPa 0,0 l/m 0,0 km/h (0 Bft) N-NW 340 0 min 0 W/m 4,8 C 11,6 C 0,0 km/h (0 Bft)
21.02.2024 17:10 11,5 C 11,5 C 63 % 1014,4 hPa 0,0 l/m 0,0 km/h (0 Bft) N-NO 17 0 min 0 W/m 4,7 C 11,5 C 0,0 km/h (0 Bft)
21.02.2024 17:05 11,5 C 11,5 C 64 % 1014,4 hPa 0,0 l/m 0,0 km/h (0 Bft) W-NW 288 0 min 0 W/m 4,9 C 11,5 C 0,0 km/h (0 Bft)
21.02.2024 17:00 11,5 C 11,5 C 64 % 1014,4 hPa 0,0 l/m 0,0 km/h (0 Bft) W-NW 294 0 min 0 W/m 4,9 C 11,5 C 0,0 km/h (0 Bft)
21.02.2024 16:58 11,5 C 11,5 C 64 % 1014,4 hPa 0,0 l/m 0,0 km/h (0 Bft) NW 313 0 min 0 W/m 4,9 C 11,5 C 0,0 km/h (0 Bft)
21.02.2024 16:50 11,6 C 11,6 C 63 % 1014,6 hPa 0,0 l/m 0,0 km/h (0 Bft) NW 311 0 min 0 W/m 4,8 C 11,6 C 0,0 km/h (0 Bft)
21.02.2024 16:45 11,6 C 11,5 C 64 % 1014,8 hPa 0,0 l/m 0,0 km/h (0 Bft) NW 315 0 min 0 W/m 5,0 C 11,6 C 0,0 km/h (0 Bft)
21.02.2024 16:40 11,5 C 11,5 C 65 % 1014,9 hPa 0,0 l/m 0,0 km/h (0 Bft) N-NW 329 0 min 0 W/m 5,2 C 11,5 C 0,0 km/h (0 Bft)
21.02.2024 16:38 11,6 C 11,6 C 64 % 1015,0 hPa 0,0 l/m 0,0 km/h (0 Bft) NW 304 0 min 0 W/m 5,0 C 11,6 C 0,0 km/h (0 Bft)
21.02.2024 16:30 11,7 C 11,7 C 64 % 1015,2 hPa 0,0 l/m 0,0 km/h (0 Bft) NW 304 0 min 0 W/m 5,1 C 11,7 C 0,0 km/h (0 Bft)
21.02.2024 16:25 11,7 C 11,7 C 63 % 1015,4 hPa 0,0 l/m 0,0 km/h (0 Bft) NW 304 0 min 0 W/m 4,9 C 11,7 C 0,0 km/h (0 Bft)
21.02.2024 16:20 11,7 C 11,7 C 63 % 1015,4 hPa 0,0 l/m 0,0 km/h (0 Bft) NW 304 0 min 0 W/m 4,9 C 11,7 C 0,0 km/h (0 Bft)
21.02.2024 16:15 11,8 C 11,7 C 62 % 1015,5 hPa 0,0 l/m 0,0 km/h (0 Bft) W-NW 299 0 min 0 W/m 4,8 C 11,8 C 0,0 km/h (0 Bft)
21.02.2024 16:12 11,7 C 11,7 C 63 % 1015,5 hPa 0,0 l/m 0,5 km/h (0 Bft) W-NW 300 0 min 0 W/m 4,9 C 11,7 C 3,2 km/h (1 Bft)
21.02.2024 16:05 11,7 C 11,6 C 65 % 1015,6 hPa 0,0 l/m 0,4 km/h (0 Bft) W 281 0 min 0 W/m 5,3 C 11,7 C 1,6 km/h (1 Bft)
21.02.2024 16:00 11,6 C 11,6 C 64 % 1015,7 hPa 0,0 l/m 0,0 km/h (0 Bft) O-SO 121 0 min 0 W/m 5,0 C 11,6 C 0,0 km/h (0 Bft)
21.02.2024 15:55 11,7 C 11,7 C 66 % 1015,8 hPa 0,0 l/m 0,0 km/h (0 Bft) O-SO 121 0 min 0 W/m 5,6 C 11,7 C 0,0 km/h (0 Bft)
21.02.2024 15:53 11,7 C 11,7 C 63 % 1015,9 hPa 0,0 l/m 0,3 km/h (0 Bft) O-SO 121 0 min 0 W/m 4,9 C 11,7 C 3,2 km/h (1 Bft)
21.02.2024 15:45 11,9 C 11,9 C 61 % 1016,2 hPa 0,0 l/m 0,2 km/h (0 Bft) O-SO 123 0 min 0 W/m 4,6 C 11,9 C 1,6 km/h (1 Bft)
21.02.2024 15:40 11,9 C 11,9 C 61 % 1016,3 hPa 0,0 l/m 0,0 km/h (0 Bft) O-SO 123 0 min 0 W/m 4,6 C 11,9 C 0,0 km/h (0 Bft)
21.02.2024 15:35 11,9 C 11,9 C 61 % 1016,3 hPa 0,0 l/m 0,0 km/h (0 Bft) SO 124 0 min 0 W/m 4,6 C 11,9 C 0,0 km/h (0 Bft)
21.02.2024 15:33 11,9 C 11,8 C 62 % 1016,3 hPa 0,0 l/m 0,0 km/h (0 Bft) SO 126 0 min 0 W/m 4,9 C 11,9 C 0,0 km/h (0 Bft)
21.02.2024 15:25 11,8 C 11,6 C 63 % 1016,4 hPa 0,0 l/m 0,0 km/h (0 Bft) O-SO 109 0 min 0 W/m 5,0 C 11,8 C 1,6 km/h (1 Bft)
21.02.2024 15:20 11,6 C 11,6 C 67 % 1016,4 hPa 0,0 l/m 0,0 km/h (0 Bft) O 91 0 min 0 W/m 5,7 C 11,6 C 0,0 km/h (0 Bft)
21.02.2024 15:15 11,6 C 11,6 C 66 % 1016,4 hPa 0,0 l/m 0,0 km/h (0 Bft) O 91 0 min 0 W/m 5,5 C 11,6 C 0,0 km/h (0 Bft)
21.02.2024 15:13 11,6 C 11,6 C 66 % 1016,4 hPa 0,0 l/m 0,0 km/h (0 Bft) O 91 0 min 0 W/m 5,5 C 11,6 C 0,0 km/h (0 Bft)
21.02.2024 15:05 11,6 C 11,6 C 65 % 1016,7 hPa 0,0 l/m 0,0 km/h (0 Bft) O 92 0 min 0 W/m 5,2 C 11,6 C 0,0 km/h (0 Bft)
21.02.2024 15:00 11,7 C 11,7 C 65 % 1016,7 hPa 0,0 l/m 0,0 km/h (0 Bft) O 92 0 min 0 W/m 5,3 C 11,7 C 0,0 km/h (0 Bft)
21.02.2024 14:55 11,7 C 11,6 C 64 % 1016,9 hPa 0,0 l/m 0,0 km/h (0 Bft) O 92 0 min 0 W/m 5,1 C 11,7 C 0,0 km/h (0 Bft)
21.02.2024 14:53 11,6 C 11,6 C 66 % 1016,9 hPa 0,0 l/m 0,0 km/h (0 Bft) O 92 0 min 0 W/m 5,5 C 11,6 C 0,0 km/h (0 Bft)
21.02.2024 14:45 11,7 C 11,6 C 63 % 1017,0 hPa 0,0 l/m 0,0 km/h (0 Bft) O 95 0 min 0 W/m 4,9 C 11,7 C 0,0 km/h (0 Bft)
21.02.2024 14:40 11,6 C 11,6 C 69 % 1017,1 hPa 0,0 l/m 0,0 km/h (0 Bft) O-SO 108 0 min 0 W/m 6,1 C 11,6 C 0,0 km/h (0 Bft)
21.02.2024 14:35 11,7 C 11,7 C 65 % 1017,3 hPa 0,0 l/m 0,0 km/h (0 Bft) O-SO 109 0 min 0 W/m 5,3 C 11,7 C 0,0 km/h (0 Bft)
21.02.2024 14:33 11,7 C 11,6 C 64 % 1017,3 hPa 0,0 l/m 0,0 km/h (0 Bft) O-SO 107 0 min 0 W/m 5,1 C 11,7 C 1,6 km/h (1 Bft)
21.02.2024 14:25 11,6 C 11,6 C 65 % 1017,5 hPa 0,0 l/m 0,0 km/h (0 Bft) O 79 0 min 0 W/m 5,2 C 11,6 C 0,0 km/h (0 Bft)
21.02.2024 14:20 11,6 C 11,6 C 66 % 1017,6 hPa 0,0 l/m 0,1 km/h (0 Bft) O 82 0 min 0 W/m 5,5 C 11,6 C 1,6 km/h (1 Bft)
21.02.2024 14:15 11,6 C 11,6 C 66 % 1017,7 hPa 0,0 l/m 0,0 km/h (0 Bft) O 88 0 min 0 W/m 5,5 C 11,6 C 0,0 km/h (0 Bft)
21.02.2024 14:13 11,6 C 11,3 C 66 % 1017,6 hPa 0,0 l/m 0,0 km/h (0 Bft) O 88 0 min 0 W/m 5,5 C 11,6 C 0,0 km/h (0 Bft)
21.02.2024 14:05 11,3 C 11,3 C 66 % 1017,9 hPa 0,0 l/m 0,0 km/h (0 Bft) N-NO 30 0 min 0 W/m 5,2 C 11,3 C 1,6 km/h (1 Bft)
21.02.2024 14:00 11,4 C 11,3 C 66 % 1017,9 hPa 0,0 l/m 0,0 km/h (0 Bft) N-NO 17 0 min 0 W/m 5,3 C 11,4 C 0,0 km/h (0 Bft)
21.02.2024 13:55 11,3 C 11,3 C 67 % 1018,0 hPa 0,0 l/m 0,0 km/h (0 Bft) N-NO 19 0 min 0 W/m 5,4 C 11,3 C 0,0 km/h (0 Bft)
21.02.2024 13:51 11,4 C 11,3 C 67 % 1018,2 hPa 0,0 l/m 0,0 km/h (0 Bft) N-NO 18 0 min 0 W/m 5,5 C 11,4 C 0,0 km/h (0 Bft)
21.02.2024 13:46 11,3 C 11,3 C 65 % 1018,4 hPa 0,0 l/m 0,0 km/h (0 Bft) NO 46 0 min 0 W/m 5,0 C 11,3 C 0,0 km/h (0 Bft)
21.02.2024 13:40 11,3 C 11,3 C 68 % 1018,4 hPa 0,0 l/m 0,0 km/h (0 Bft) NO 46 0 min 0 W/m 5,6 C 11,3 C 0,0 km/h (0 Bft)
21.02.2024 13:35 11,4 C 11,2 C 67 % 1018,5 hPa 0,0 l/m 0,0 km/h (0 Bft) O-NO 69 0 min 0 W/m 5,5 C 11,4 C 0,0 km/h (0 Bft)
21.02.2024 13:30 11,3 C 11,3 C 66 % 1018,6 hPa 0,0 l/m 0,0 km/h (0 Bft) N 351 0 min 0 W/m 5,2 C 11,3 C 0,0 km/h (0 Bft)
21.02.2024 13:27 11,3 C 11,2 C 66 % 1018,8 hPa 0,0 l/m 0,0 km/h (0 Bft) N-NO 26 0 min 0 W/m 5,2 C 11,3 C 0,0 km/h (0 Bft)
21.02.2024 13:20 11,2 C 11,2 C 67 % 1018,9 hPa 0,0 l/m 0,0 km/h (0 Bft) NO 55 0 min 0 W/m 5,3 C 11,2 C 1,6 km/h (1 Bft)
21.02.2024 13:15 11,2 C 11,2 C 64 % 1019,0 hPa 0,0 l/m 0,6 km/h (0 Bft) N-NO 29 0 min 0 W/m 4,6 C 11,2 C 3,2 km/h (1 Bft)
21.02.2024 13:10 11,3 C 11,3 C 66 % 1019,0 hPa 0,0 l/m 0,0 km/h (0 Bft) N-NW 348 0 min 0 W/m 5,2 C 11,3 C 0,0 km/h (0 Bft)
21.02.2024 13:08 11,3 C 11,1 C 66 % 1019,1 hPa 0,0 l/m 0,9 km/h (0 Bft) N-NW 342 0 min 0 W/m 5,2 C 11,3 C 3,2 km/h (1 Bft)
21.02.2024 13:00 11,1 C 11,0 C 69 % 1019,3 hPa 0,0 l/m 0,1 km/h (0 Bft) N 349 0 min 0 W/m 5,6 C 11,1 C 1,6 km/h (1 Bft)
21.02.2024 12:55 11,3 C 11,3 C 68 % 1019,4 hPa 0,0 l/m 0,1 km/h (0 Bft) N-NO 12 0 min 0 W/m 5,6 C 11,3 C 3,2 km/h (1 Bft)
21.02.2024 12:50 11,3 C 11,3 C 68 % 1019,5 hPa 0,0 l/m 0,0 km/h (0 Bft) N-NO 16 0 min 0 W/m 5,6 C 11,3 C 0,0 km/h (0 Bft)
21.02.2024 12:48 11,3 C 11,1 C 68 % 1019,5 hPa 0,0 l/m 0,0 km/h (0 Bft) N-NO 32 0 min 0 W/m 5,6 C 11,3 C 0,0 km/h (0 Bft)
21.02.2024 12:40 11,1 C 11,1 C 70 % 1019,6 hPa 0,0 l/m 0,0 km/h (0 Bft) N 355 0 min 0 W/m 5,8 C 11,1 C 0,0 km/h (0 Bft)
21.02.2024 12:35 11,1 C 11,1 C 69 % 1019,7 hPa 0,0 l/m 0,1 km/h (0 Bft) NO 53 0 min 0 W/m 5,6 C 11,1 C 1,6 km/h (1 Bft)
21.02.2024 12:30 11,1 C 11,1 C 71 % 1019,9 hPa 0,0 l/m 0,5 km/h (0 Bft) NO 47 0 min 0 W/m 6,0 C 11,1 C 3,2 km/h (1 Bft)
21.02.2024 12:28 11,1 C 10,9 C 70 % 1019,9 hPa 0,0 l/m 0,0 km/h (0 Bft) O-NO 69 0 min 0 W/m 5,8 C 11,1 C 0,0 km/h (0 Bft)
21.02.2024 12:20 11,0 C 11,0 C 69 % 1020,1 hPa 0,0 l/m 0,0 km/h (0 Bft) O-NO 74 0 min 0 W/m 5,5 C 11,0 C 0,0 km/h (0 Bft)
21.02.2024 12:15 11,0 C 11,0 C 72 % 1020,2 hPa 0,0 l/m 0,0 km/h (0 Bft) O-NO 78 0 min 0 W/m 6,2 C 11,0 C 0,0 km/h (0 Bft)
21.02.2024 12:10 11,0 C 11,0 C 70 % 1020,3 hPa 0,0 l/m 0,0 km/h (0 Bft) O 89 0 min 0 W/m 5,7 C 11,0 C 0,0 km/h (0 Bft)
21.02.2024 12:08 11,0 C 10,7 C 70 % 1020,4 hPa 0,0 l/m 0,8 km/h (0 Bft) O-NO 62 0 min 0 W/m 5,7 C 11,0 C 3,2 km/h (1 Bft)
21.02.2024 12:00 10,8 C 10,6 C 70 % 1020,5 hPa 0,0 l/m 0,8 km/h (0 Bft) NO 46 0 min 0 W/m 5,6 C 10,8 C 3,2 km/h (1 Bft)
21.02.2024 11:55 10,6 C 10,4 C 71 % 1020,6 hPa 0,0 l/m 0,0 km/h (0 Bft) O 81 0 min 0 W/m 5,6 C 10,6 C 1,6 km/h (1 Bft)
21.02.2024 11:50 10,5 C 10,5 C 72 % 1020,7 hPa 0,0 l/m 0,0 km/h (0 Bft) NO 46 0 min 0 W/m 5,7 C 10,5 C 0,0 km/h (0 Bft)
21.02.2024 11:48 10,6 C 10,5 C 73 % 1020,8 hPa 0,0 l/m 0,5 km/h (0 Bft) NO 55 0 min 0 W/m 6,0 C 10,6 C 3,2 km/h (1 Bft)
21.02.2024 11:40 10,5 C 10,2 C 72 % 1020,9 hPa 0,0 l/m 0,0 km/h (0 Bft) O-NO 59 0 min 0 W/m 5,7 C 10,5 C 0,0 km/h (0 Bft)
21.02.2024 11:35 10,2 C 10,0 C 72 % 1021,0 hPa 0,0 l/m 0,0 km/h (0 Bft) NO 52 0 min 0 W/m 5,4 C 10,2 C 0,0 km/h (0 Bft)
21.02.2024 11:30 10,0 C 9,8 C 75 % 1021,0 hPa 0,0 l/m 0,0 km/h (0 Bft) O-NO 65 0 min 0 W/m 5,8 C 10,0 C 0,0 km/h (0 Bft)
21.02.2024 11:27 9,8 C 9,6 C 74 % 1021,1 hPa 0,0 l/m 0,0 km/h (0 Bft) NO 42 0 min 0 W/m 5,4 C 9,8 C 0,0 km/h (0 Bft)
21.02.2024 11:20 9,6 C 9,5 C 75 % 1021,2 hPa 0,0 l/m 0,0 km/h (0 Bft) NO 40 0 min 0 W/m 5,4 C 9,6 C 0,0 km/h (0 Bft)
21.02.2024 11:15 9,5 C 9,4 C 76 % 1021,3 hPa 0,0 l/m 0,0 km/h (0 Bft) O-NO 71 0 min 0 W/m 5,5 C 9,5 C 0,0 km/h (0 Bft)
21.02.2024 11:10 9,4 C 9,4 C 76 % 1021,4 hPa 0,0 l/m 0,0 km/h (0 Bft) O-NO 65 0 min 0 W/m 5,4 C 9,4 C 1,6 km/h (1 Bft)
21.02.2024 11:05 9,4 C 9,2 C 77 % 1021,5 hPa 0,0 l/m 0,4 km/h (0 Bft) NO 48 0 min 0 W/m 5,6 C 9,4 C 1,6 km/h (1 Bft)
21.02.2024 11:03 9,2 C 9,1 C 78 % 1021,5 hPa 0,0 l/m 0,1 km/h (0 Bft) NO 48 0 min 0 W/m 5,6 C 9,2 C 3,2 km/h (1 Bft)
21.02.2024 10:55 9,1 C 8,9 C 78 % 1021,5 hPa 0,0 l/m 0,5 km/h (0 Bft) NO 41 0 min 0 W/m 5,5 C 9,1 C 3,2 km/h (1 Bft)
21.02.2024 10:50 8,9 C 8,8 C 78 % 1021,5 hPa 0,0 l/m 1,0 km/h (0 Bft) NO 53 0 min 0 W/m 5,3 C 8,9 C 4,8 km/h (1 Bft)
21.02.2024 10:45 8,8 C 8,8 C 78 % 1021,5 hPa 0,0 l/m 0,0 km/h (0 Bft) NO 44 0 min 0 W/m 5,2 C 8,8 C 0,0 km/h (0 Bft)
21.02.2024 10:43 8,8 C 8,6 C 79 % 1021,5 hPa 0,0 l/m 0,0 km/h (0 Bft) O-NO 72 0 min 0 W/m 5,4 C 8,8 C 1,6 km/h (1 Bft)
21.02.2024 10:35 8,6 C 8,5 C 79 % 1021,5 hPa 0,0 l/m 0,0 km/h (0 Bft) NO 48 0 min 0 W/m 5,2 C 8,6 C 0,0 km/h (0 Bft)
21.02.2024 10:30 8,5 C 8,4 C 80 % 1021,8 hPa 0,0 l/m 2,0 km/h (1 Bft) NO 46 0 min 0 W/m 5,3 C 8,5 C 9,7 km/h (2 Bft)
21.02.2024 10:25 8,4 C 8,3 C 79 % 1021,8 hPa 0,0 l/m 3,1 km/h (1 Bft) O-NO 59 0 min 0 W/m 5,0 C 8,4 C 9,7 km/h (2 Bft)
21.02.2024 10:23 8,3 C 8,1 C 79 % 1021,8 hPa 0,0 l/m 0,4 km/h (0 Bft) NO 42 0 min 0 W/m 4,9 C 8,3 C 8,0 km/h (2 Bft)
21.02.2024 10:15 8,1 C 7,3 C 82 % 1021,9 hPa 0,0 l/m 0,3 km/h (0 Bft) N-NO 21 0 min 0 W/m 5,2 C 8,1 C 3,2 km/h (1 Bft)
21.02.2024 10:10 7,3 C 5,9 C 86 % 1022,0 hPa 0,0 l/m 0,5 km/h (0 Bft) N-NO 28 0 min 0 W/m 5,1 C 7,3 C 4,8 km/h (1 Bft)
21.02.2024 10:05 5,9 C 5,8 C 94 % 1022,0 hPa 0,0 l/m 1,7 km/h (1 Bft) N 5 0 min 0 W/m 5,0 C 5,9 C 4,8 km/h (1 Bft)
21.02.2024 10:03 5,8 C 5,5 C 94 % 1022,0 hPa 0,0 l/m 1,0 km/h (0 Bft) NO 49 0 min 0 W/m 4,9 C 5,8 C 3,2 km/h (1 Bft)
21.02.2024 09:55 5,5 C 5,3 C 94 % 1022,1 hPa 0,0 l/m 1,3 km/h (1 Bft) N-NO 30 0 min 0 W/m 4,6 C 5,5 C 3,2 km/h (1 Bft)
21.02.2024 09:50 5,3 C 5,0 C 94 % 1022,1 hPa 0,0 l/m 0,8 km/h (0 Bft) N 5 0 min 0 W/m 4,4 C 5,3 C 4,8 km/h (1 Bft)
21.02.2024 09:45 5,0 C 4,9 C 94 % 1022,3 hPa 0,0 l/m 0,0 km/h (0 Bft) NO 46 0 min 0 W/m 4,1 C 5,0 C 0,0 km/h (0 Bft)
21.02.2024 09:43 4,9 C 4,7 C 94 % 1022,3 hPa 0,0 l/m 0,0 km/h (0 Bft) NO 47 0 min 0 W/m 4,0 C 4,9 C 0,0 km/h (0 Bft)
21.02.2024 09:35 4,7 C 4,6 C 94 % 1022,3 hPa 0,0 l/m 0,0 km/h (0 Bft) W-NW 287 0 min 0 W/m 3,8 C 4,7 C 0,0 km/h (0 Bft)
21.02.2024 09:30 4,6 C 4,4 C 94 % 1022,4 hPa 0,0 l/m 0,0 km/h (0 Bft) W-NW 287 0 min 0 W/m 3,7 C 4,6 C 0,0 km/h (0 Bft)
21.02.2024 09:25 4,5 C 4,4 C 93 % 1022,4 hPa 0,0 l/m 0,0 km/h (0 Bft) W-NW 287 0 min 0 W/m 3,5 C 4,5 C 0,0 km/h (0 Bft)
21.02.2024 09:23 4,4 C 4,3 C 93 % 1022,4 hPa 0,0 l/m 0,0 km/h (0 Bft) W-NW 287 0 min 0 W/m 3,4 C 4,4 C 0,0 km/h (0 Bft)
21.02.2024 09:15 4,3 C 4,2 C 93 % 1022,4 hPa 0,0 l/m 0,0 km/h (0 Bft) W-NW 288 0 min 0 W/m 3,3 C 4,3 C 0,0 km/h (0 Bft)
21.02.2024 09:10 4,2 C 4,1 C 93 % 1022,5 hPa 0,0 l/m 0,0 km/h (0 Bft) W-NW 288 0 min 0 W/m 3,2 C 4,2 C 0,0 km/h (0 Bft)
21.02.2024 09:05 4,1 C 4,1 C 93 % 1022,5 hPa 0,0 l/m 0,0 km/h (0 Bft) W-NW 288 0 min 0 W/m 3,1 C 4,1 C 0,0 km/h (0 Bft)
21.02.2024 09:02 4,1 C 4,0 C 92 % 1022,4 hPa 0,0 l/m 0,0 km/h (0 Bft) W-NW 288 0 min 0 W/m 2,9 C 4,1 C 0,0 km/h (0 Bft)
21.02.2024 08:55 4,0 C 3,9 C 92 % 1022,6 hPa 0,0 l/m 0,0 km/h (0 Bft) W-NW 288 0 min 0 W/m 2,8 C 4,0 C 0,0 km/h (0 Bft)
21.02.2024 08:50 3,9 C 3,9 C 92 % 1022,7 hPa 0,0 l/m 0,0 km/h (0 Bft) W-NW 288 0 min 0 W/m 2,7 C 3,9 C 0,0 km/h (0 Bft)
21.02.2024 08:45 3,9 C 3,9 C 92 % 1022,9 hPa 0,0 l/m 0,0 km/h (0 Bft) W-NW 288 0 min 0 W/m 2,7 C 3,9 C 0,0 km/h (0 Bft)
21.02.2024 08:40 3,9 C 3,9 C 91 % 1022,9 hPa 0,0 l/m 0,0 km/h (0 Bft) W-NW 288 0 min 0 W/m 2,6 C 3,9 C 0,0 km/h (0 Bft)
21.02.2024 08:37 3,9 C 3,9 C 91 % 1022,9 hPa 0,0 l/m 0,0 km/h (0 Bft) W-NW 288 0 min 0 W/m 2,6 C 3,9 C 0,0 km/h (0 Bft)
21.02.2024 08:30 3,9 C 3,9 C 91 % 1022,9 hPa 0,0 l/m 0,0 km/h (0 Bft) W-NW 288 0 min 0 W/m 2,6 C 3,9 C 0,0 km/h (0 Bft)
21.02.2024 08:25 3,9 C 3,9 C 91 % 1022,8 hPa 0,0 l/m 0,0 km/h (0 Bft) W-NW 288 0 min 0 W/m 2,6 C 3,9 C 0,0 km/h (0 Bft)
21.02.2024 08:20 3,9 C 3,9 C 91 % 1022,9 hPa 0,0 l/m 0,0 km/h (0 Bft) W-NW 288 0 min 0 W/m 2,6 C 3,9 C 0,0 km/h (0 Bft)
21.02.2024 08:18 4,0 C 4,0 C 91 % 1022,9 hPa 0,0 l/m 0,0 km/h (0 Bft) W-NW 288 0 min 0 W/m 2,7 C 4,0 C 0,0 km/h (0 Bft)
21.02.2024 08:10 4,1 C 4,1 C 90 % 1023,0 hPa 0,0 l/m 0,0 km/h (0 Bft) W-NW 288 0 min 0 W/m 2,6 C 4,1 C 0,0 km/h (0 Bft)
21.02.2024 08:05 4,1 C 4,1 C 90 % 1023,0 hPa 0,0 l/m 0,0 km/h (0 Bft) W-NW 289 0 min 0 W/m 2,6 C 4,1 C 0,0 km/h (0 Bft)
21.02.2024 08:00 4,2 C 4,2 C 90 % 1023,0 hPa 0,0 l/m 0,0 km/h (0 Bft) W-NW 289 0 min 0 W/m 2,7 C 4,2 C 0,0 km/h (0 Bft)
21.02.2024 07:58 4,2 C 4,2 C 90 % 1023,0 hPa 0,0 l/m 0,0 km/h (0 Bft) W-NW 289 0 min 0 W/m 2,7 C 4,2 C 0,0 km/h (0 Bft)
21.02.2024 07:50 4,3 C 4,3 C 90 % 1023,2 hPa 0,0 l/m 0,0 km/h (0 Bft) W-NW 291 0 min 0 W/m 2,8 C 4,3 C 1,6 km/h (1 Bft)
21.02.2024 07:45 4,4 C 4,3 C 90 % 1023,2 hPa 0,0 l/m 0,3 km/h (0 Bft) W-NW 291 0 min 0 W/m 2,9 C 4,4 C 1,6 km/h (1 Bft)
21.02.2024 07:40 4,4 C 4,4 C 89 % 1023,2 hPa 0,0 l/m 0,0 km/h (0 Bft) NW 306 0 min 0 W/m 2,7 C 4,4 C 0,0 km/h (0 Bft)
21.02.2024 07:38 4,4 C 4,4 C 89 % 1023,2 hPa 0,0 l/m 0,0 km/h (0 Bft) NW 306 0 min 0 W/m 2,7 C 4,4 C 0,0 km/h (0 Bft)
21.02.2024 07:30 4,6 C 4,6 C 90 % 1023,2 hPa 0,0 l/m 0,0 km/h (0 Bft) NW 307 0 min 0 W/m 3,1 C 4,6 C 0,0 km/h (0 Bft)
21.02.2024 07:25 4,7 C 4,7 C 90 % 1023,2 hPa 0,0 l/m 0,0 km/h (0 Bft) N-NW 336 0 min 0 W/m 3,2 C 4,7 C 0,0 km/h (0 Bft)
21.02.2024 07:20 4,7 C 4,7 C 89 % 1023,2 hPa 0,0 l/m 0,0 km/h (0 Bft) N-NO 26 0 min 0 W/m 3,0 C 4,7 C 0,0 km/h (0 Bft)
21.02.2024 07:15 4,8 C 4,8 C 90 % 1023,2 hPa 0,0 l/m 0,0 km/h (0 Bft) N-NO 26 0 min 0 W/m 3,3 C 4,8 C 0,0 km/h (0 Bft)
21.02.2024 07:10 4,9 C 4,9 C 90 % 1023,2 hPa 0,0 l/m 0,0 km/h (0 Bft) N-NO 26 0 min 0 W/m 3,4 C 4,9 C 0,0 km/h (0 Bft)
21.02.2024 07:05 4,9 C 4,9 C 89 % 1023,1 hPa 0,0 l/m 0,0 km/h (0 Bft) N-NO 26 0 min 0 W/m 3,2 C 4,9 C 0,0 km/h (0 Bft)
21.02.2024 07:00 5,1 C 5,0 C 89 % 1023,1 hPa 0,0 l/m 0,0 km/h (0 Bft) N-NO 26 0 min 0 W/m 3,4 C 5,1 C 0,0 km/h (0 Bft)
21.02.2024 06:55 5,1 C 5,1 C 89 % 1023,1 hPa 0,0 l/m 0,0 km/h (0 Bft) N-NO 26 0 min 0 W/m 3,4 C 5,1 C 0,0 km/h (0 Bft)
21.02.2024 06:50 5,2 C 5,2 C 90 % 1023,2 hPa 0,0 l/m 0,0 km/h (0 Bft) N-NO 26 0 min 0 W/m 3,7 C 5,2 C 0,0 km/h (0 Bft)
21.02.2024 06:45 5,2 C 5,2 C 90 % 1023,3 hPa 0,0 l/m 0,0 km/h (0 Bft) N-NO 27 0 min 0 W/m 3,7 C 5,2 C 0,0 km/h (0 Bft)
21.02.2024 06:40 5,3 C 5,3 C 90 % 1023,3 hPa 0,0 l/m 0,0 km/h (0 Bft) N-NO 27 0 min 0 W/m 3,8 C 5,3 C 0,0 km/h (0 Bft)
21.02.2024 06:35 5,4 C 5,4 C 90 % 1023,3 hPa 0,0 l/m 0,0 km/h (0 Bft) N-NO 19 0 min 0 W/m 3,9 C 5,4 C 0,0 km/h (0 Bft)
21.02.2024 06:30 5,4 C 5,4 C 90 % 1023,3 hPa 0,0 l/m 0,0 km/h (0 Bft) N-NO 19 0 min 0 W/m 3,9 C 5,4 C 0,0 km/h (0 Bft)
21.02.2024 06:25 5,5 C 5,5 C 90 % 1023,5 hPa 0,0 l/m 0,0 km/h (0 Bft) N-NO 19 0 min 0 W/m 4,0 C 5,5 C 0,0 km/h (0 Bft)
21.02.2024 06:20 5,6 C 5,6 C 90 % 1023,7 hPa 0,0 l/m 0,0 km/h (0 Bft) N-NO 19 0 min 0 W/m 4,1 C 5,6 C 0,0 km/h (0 Bft)
21.02.2024 06:15 5,6 C 5,6 C 90 % 1023,7 hPa 0,0 l/m 0,0 km/h (0 Bft) N-NO 19 0 min 0 W/m 4,1 C 5,6 C 0,0 km/h (0 Bft)
21.02.2024 06:10 5,7 C 5,6 C 90 % 1023,8 hPa 0,0 l/m 0,0 km/h (0 Bft) N-NO 19 0 min 0 W/m 4,2 C 5,7 C 0,0 km/h (0 Bft)
21.02.2024 06:05 5,7 C 5,7 C 90 % 1023,9 hPa 0,0 l/m 0,0 km/h (0 Bft) N-NO 19 0 min 0 W/m 4,2 C 5,7 C 0,0 km/h (0 Bft)
21.02.2024 06:00 5,7 C 5,7 C 90 % 1023,9 hPa 0,0 l/m 0,0 km/h (0 Bft) N-NO 19 0 min 0 W/m 4,2 C 5,7 C 0,0 km/h (0 Bft)
21.02.2024 05:55 5,7 C 5,7 C 90 % 1024,0 hPa 0,0 l/m 0,0 km/h (0 Bft) N-NO 19 0 min 0 W/m 4,2 C 5,7 C 0,0 km/h (0 Bft)
21.02.2024 05:50 5,8 C 5,7 C 90 % 1023,9 hPa 0,0 l/m 0,0 km/h (0 Bft) N-NO 19 0 min 0 W/m 4,3 C 5,8 C 0,0 km/h (0 Bft)
21.02.2024 05:45 5,8 C 5,8 C 90 % 1023,8 hPa 0,0 l/m 0,0 km/h (0 Bft) N-NO 19 0 min 0 W/m 4,3 C 5,8 C 0,0 km/h (0 Bft)
21.02.2024 05:40 5,8 C 5,8 C 90 % 1023,8 hPa 0,0 l/m 0,0 km/h (0 Bft) N-NO 19 0 min 0 W/m 4,3 C 5,8 C 0,0 km/h (0 Bft)
21.02.2024 05:35 5,8 C 5,8 C 90 % 1023,9 hPa 0,0 l/m 0,0 km/h (0 Bft) N-NO 18 0 min 0 W/m 4,3 C 5,8 C 0,0 km/h (0 Bft)
21.02.2024 05:30 5,9 C 5,8 C 90 % 1023,8 hPa 0,0 l/m 0,0 km/h (0 Bft) N-NO 18 0 min 0 W/m 4,4 C 5,9 C 0,0 km/h (0 Bft)
21.02.2024 05:25 5,9 C 5,9 C 90 % 1023,8 hPa 0,0 l/m 0,0 km/h (0 Bft) N-NO 18 0 min 0 W/m 4,4 C 5,9 C 0,0 km/h (0 Bft)
21.02.2024 05:20 5,9 C 5,9 C 90 % 1024,0 hPa 0,0 l/m 0,0 km/h (0 Bft) N-NO 18 0 min 0 W/m 4,4 C 5,9 C 0,0 km/h (0 Bft)
21.02.2024 05:15 5,9 C 5,9 C 90 % 1024,1 hPa 0,0 l/m 0,0 km/h (0 Bft) N-NO 18 0 min 0 W/m 4,4 C 5,9 C 0,0 km/h (0 Bft)
21.02.2024 05:10 5,9 C 5,9 C 90 % 1024,3 hPa 0,0 l/m 0,0 km/h (0 Bft) N-NO 18 0 min 0 W/m 4,4 C 5,9 C 0,0 km/h (0 Bft)
21.02.2024 05:05 5,9 C 5,9 C 90 % 1024,2 hPa 0,0 l/m 0,0 km/h (0 Bft) N-NO 18 0 min 0 W/m 4,4 C 5,9 C 0,0 km/h (0 Bft)
21.02.2024 05:00 5,9 C 5,9 C 90 % 1024,2 hPa 0,0 l/m 0,0 km/h (0 Bft) N-NO 18 0 min 0 W/m 4,4 C 5,9 C 0,0 km/h (0 Bft)
21.02.2024 04:55 5,9 C 5,9 C 90 % 1024,3 hPa 0,0 l/m 0,0 km/h (0 Bft) N-NO 18 0 min 0 W/m 4,4 C 5,9 C 0,0 km/h (0 Bft)
21.02.2024 04:50 5,9 C 5,9 C 90 % 1024,4 hPa 0,0 l/m 0,0 km/h (0 Bft) N-NO 18 0 min 0 W/m 4,4 C 5,9 C 0,0 km/h (0 Bft)
21.02.2024 04:45 5,9 C 5,9 C 90 % 1024,4 hPa 0,0 l/m 0,1 km/h (0 Bft) N-NO 18 0 min 0 W/m 4,4 C 5,9 C 1,6 km/h (1 Bft)
21.02.2024 04:40 5,9 C 5,8 C 90 % 1024,4 hPa 0,0 l/m 0,0 km/h (0 Bft) N-NO 14 0 min 0 W/m 4,4 C 5,9 C 0,0 km/h (0 Bft)
21.02.2024 04:35 5,9 C 5,8 C 90 % 1024,3 hPa 0,0 l/m 0,1 km/h (0 Bft) N-NO 14 0 min 0 W/m 4,4 C 5,9 C 1,6 km/h (1 Bft)
21.02.2024 04:30 5,9 C 5,8 C 90 % 1024,4 hPa 0,0 l/m 0,0 km/h (0 Bft) N 9 0 min 0 W/m 4,4 C 5,9 C 0,0 km/h (0 Bft)
21.02.2024 04:25 5,8 C 5,8 C 90 % 1024,5 hPa 0,0 l/m 0,0 km/h (0 Bft) N 9 0 min 0 W/m 4,3 C 5,8 C 0,0 km/h (0 Bft)
21.02.2024 04:20 5,8 C 5,8 C 90 % 1024,6 hPa 0,0 l/m 0,0 km/h (0 Bft) N 9 0 min 0 W/m 4,3 C 5,8 C 0,0 km/h (0 Bft)
21.02.2024 04:15 5,8 C 5,8 C 90 % 1024,6 hPa 0,0 l/m 0,0 km/h (0 Bft) N 9 0 min 0 W/m 4,3 C 5,8 C 0,0 km/h (0 Bft)
21.02.2024 04:10 5,8 C 5,7 C 90 % 1024,8 hPa 0,0 l/m 0,0 km/h (0 Bft) N 9 0 min 0 W/m 4,3 C 5,8 C 0,0 km/h (0 Bft)
21.02.2024 04:05 5,7 C 5,7 C 90 % 1024,9 hPa 0,0 l/m 0,0 km/h (0 Bft) O-SO 113 0 min 0 W/m 4,2 C 5,7 C 0,0 km/h (0 Bft)
21.02.2024 04:00 5,7 C 5,7 C 90 % 1025,1 hPa 0,0 l/m 0,0 km/h (0 Bft) SO 124 0 min 0 W/m 4,2 C 5,7 C 0,0 km/h (0 Bft)
21.02.2024 03:55 5,7 C 5,6 C 90 % 1025,0 hPa 0,0 l/m 0,0 km/h (0 Bft) SO 124 0 min 0 W/m 4,2 C 5,7 C 0,0 km/h (0 Bft)
21.02.2024 03:50 5,6 C 5,6 C 90 % 1025,0 hPa 0,0 l/m 0,0 km/h (0 Bft) SO 124 0 min 0 W/m 4,1 C 5,6 C 0,0 km/h (0 Bft)
21.02.2024 03:45 5,6 C 5,6 C 90 % 1025,1 hPa 0,0 l/m 0,0 km/h (0 Bft) SO 124 0 min 0 W/m 4,1 C 5,6 C 0,0 km/h (0 Bft)
21.02.2024 03:40 5,6 C 5,6 C 89 % 1025,1 hPa 0,0 l/m 0,0 km/h (0 Bft) O-SO 120 0 min 0 W/m 3,9 C 5,6 C 0,0 km/h (0 Bft)
21.02.2024 03:35 5,6 C 5,5 C 89 % 1025,1 hPa 0,0 l/m 0,0 km/h (0 Bft) O-SO 117 0 min 0 W/m 3,9 C 5,6 C 0,0 km/h (0 Bft)
21.02.2024 03:30 5,5 C 5,5 C 89 % 1025,0 hPa 0,0 l/m 0,0 km/h (0 Bft) N-NO 29 0 min 0 W/m 3,8 C 5,5 C 1,6 km/h (1 Bft)
21.02.2024 03:25 5,5 C 5,5 C 89 % 1025,1 hPa 0,0 l/m 0,7 km/h (0 Bft) N-NO 28 0 min 0 W/m 3,8 C 5,5 C 3,2 km/h (1 Bft)
21.02.2024 03:20 5,5 C 5,4 C 89 % 1025,1 hPa 0,0 l/m 0,3 km/h (0 Bft) NO 38 0 min 0 W/m 3,8 C 5,5 C 1,6 km/h (1 Bft)
21.02.2024 03:15 5,5 C 5,4 C 89 % 1025,2 hPa 0,0 l/m 0,2 km/h (0 Bft) N-NW 336 0 min 0 W/m 3,8 C 5,5 C 1,6 km/h (1 Bft)
21.02.2024 03:10 5,5 C 5,4 C 89 % 1025,4 hPa 0,0 l/m 0,2 km/h (0 Bft) N-NW 333 0 min 0 W/m 3,8 C 5,5 C 3,2 km/h (1 Bft)
21.02.2024 03:05 5,4 C 5,4 C 89 % 1025,3 hPa 0,0 l/m 0,0 km/h (0 Bft) SO 127 0 min 0 W/m 3,7 C 5,4 C 1,6 km/h (1 Bft)
21.02.2024 03:00 5,5 C 5,4 C 89 % 1025,5 hPa 0,0 l/m 0,0 km/h (0 Bft) SO 127 0 min 0 W/m 3,8 C 5,5 C 0,0 km/h (0 Bft)
21.02.2024 02:55 5,4 C 5,4 C 89 % 1025,5 hPa 0,0 l/m 0,0 km/h (0 Bft) SO 127 0 min 0 W/m 3,7 C 5,4 C 0,0 km/h (0 Bft)
21.02.2024 02:50 5,4 C 5,4 C 89 % 1025,6 hPa 0,0 l/m 0,0 km/h (0 Bft) SO 127 0 min 0 W/m 3,7 C 5,4 C 0,0 km/h (0 Bft)
21.02.2024 02:45 5,4 C 5,4 C 89 % 1025,8 hPa 0,0 l/m 0,0 km/h (0 Bft) SO 127 0 min 0 W/m 3,7 C 5,4 C 1,6 km/h (1 Bft)
21.02.2024 02:40 5,4 C 5,4 C 89 % 1025,8 hPa 0,0 l/m 0,0 km/h (0 Bft) SO 127 0 min 0 W/m 3,7 C 5,4 C 0,0 km/h (0 Bft)
21.02.2024 02:35 5,4 C 5,4 C 89 % 1025,8 hPa 0,0 l/m 0,3 km/h (0 Bft) SO 127 0 min 0 W/m 3,7 C 5,4 C 3,2 km/h (1 Bft)
21.02.2024 02:30 5,4 C 5,3 C 89 % 1025,9 hPa 0,0 l/m 0,0 km/h (0 Bft) O 101 0 min 0 W/m 3,7 C 5,4 C 0,0 km/h (0 Bft)
21.02.2024 02:25 5,3 C 5,3 C 89 % 1025,9 hPa 0,0 l/m 0,0 km/h (0 Bft) O 101 0 min 0 W/m 3,6 C 5,3 C 0,0 km/h (0 Bft)
21.02.2024 02:20 5,3 C 5,3 C 89 % 1026,0 hPa 0,0 l/m 0,0 km/h (0 Bft) O 101 0 min 0 W/m 3,6 C 5,3 C 0,0 km/h (0 Bft)
21.02.2024 02:15 5,3 C 5,3 C 89 % 1026,1 hPa 0,0 l/m 0,0 km/h (0 Bft) O 101 0 min 0 W/m 3,6 C 5,3 C 0,0 km/h (0 Bft)
21.02.2024 02:10 5,3 C 5,3 C 89 % 1026,2 hPa 0,0 l/m 0,0 km/h (0 Bft) O 101 0 min 0 W/m 3,6 C 5,3 C 0,0 km/h (0 Bft)
21.02.2024 02:05 5,3 C 5,3 C 88 % 1026,2 hPa 0,0 l/m 0,0 km/h (0 Bft) O 101 0 min 0 W/m 3,5 C 5,3 C 0,0 km/h (0 Bft)
21.02.2024 02:00 5,3 C 5,2 C 89 % 1026,3 hPa 0,0 l/m 0,0 km/h (0 Bft) O 101 0 min 0 W/m 3,6 C 5,3 C 0,0 km/h (0 Bft)
21.02.2024 01:55 5,3 C 5,2 C 88 % 1026,3 hPa 0,0 l/m 0,0 km/h (0 Bft) O 101 0 min 0 W/m 3,5 C 5,3 C 0,0 km/h (0 Bft)
21.02.2024 01:50 5,3 C 5,2 C 88 % 1026,3 hPa 0,0 l/m 0,0 km/h (0 Bft) O 101 0 min 0 W/m 3,5 C 5,3 C 0,0 km/h (0 Bft)
21.02.2024 01:45 5,2 C 5,2 C 88 % 1026,4 hPa 0,0 l/m 0,0 km/h (0 Bft) O 101 0 min 0 W/m 3,4 C 5,2 C 1,6 km/h (1 Bft)
21.02.2024 01:40 5,2 C 5,2 C 88 % 1026,4 hPa 0,0 l/m 0,0 km/h (0 Bft) O 101 0 min 0 W/m 3,4 C 5,2 C 0,0 km/h (0 Bft)
21.02.2024 01:35 5,2 C 5,2 C 88 % 1026,4 hPa 0,0 l/m 0,1 km/h (0 Bft) O 101 0 min 0 W/m 3,4 C 5,2 C 1,6 km/h (1 Bft)
21.02.2024 01:30 5,2 C 5,2 C 88 % 1026,5 hPa 0,0 l/m 0,0 km/h (0 Bft) O 101 0 min 0 W/m 3,4 C 5,2 C 0,0 km/h (0 Bft)
21.02.2024 01:25 5,2 C 5,2 C 88 % 1026,7 hPa 0,0 l/m 0,0 km/h (0 Bft) O 101 0 min 0 W/m 3,4 C 5,2 C 1,6 km/h (1 Bft)
21.02.2024 01:20 5,2 C 5,1 C 88 % 1026,8 hPa 0,0 l/m 0,0 km/h (0 Bft) O 101 0 min 0 W/m 3,4 C 5,2 C 0,0 km/h (0 Bft)
21.02.2024 01:15 5,2 C 5,1 C 88 % 1026,9 hPa 0,0 l/m 0,0 km/h (0 Bft) O 101 0 min 0 W/m 3,4 C 5,2 C 1,6 km/h (1 Bft)
21.02.2024 01:10 5,2 C 5,1 C 87 % 1026,9 hPa 0,0 l/m 0,0 km/h (0 Bft) O 101 0 min 0 W/m 3,2 C 5,2 C 0,0 km/h (0 Bft)
21.02.2024 01:05 5,1 C 5,1 C 87 % 1026,9 hPa 0,0 l/m 0,0 km/h (0 Bft) O 101 0 min 0 W/m 3,1 C 5,1 C 0,0 km/h (0 Bft)
21.02.2024 01:00 5,1 C 5,1 C 87 % 1026,9 hPa 0,2 l/m 0,1 km/h (0 Bft) O 101 0 min 0 W/m 3,1 C 5,1 C 1,6 km/h (1 Bft)
21.02.2024 00:55 5,1 C 5,1 C 87 % 1027,0 hPa 0,0 l/m 0,0 km/h (0 Bft) O 101 0 min 0 W/m 3,1 C 5,1 C 0,0 km/h (0 Bft)
21.02.2024 00:50 5,1 C 5,1 C 87 % 1026,9 hPa 0,0 l/m 0,0 km/h (0 Bft) O 101 0 min 0 W/m 3,1 C 5,1 C 0,0 km/h (0 Bft)
21.02.2024 00:45 5,1 C 5,1 C 87 % 1027,0 hPa 0,0 l/m 0,3 km/h (0 Bft) O 101 0 min 0 W/m 3,1 C 5,1 C 3,2 km/h (1 Bft)
21.02.2024 00:40 5,2 C 5,1 C 87 % 1027,2 hPa 0,0 l/m 0,5 km/h (0 Bft) O-NO 76 0 min 0 W/m 3,2 C 5,2 C 3,2 km/h (1 Bft)
21.02.2024 00:35 5,1 C 5,1 C 87 % 1027,2 hPa 0,0 l/m 0,1 km/h (0 Bft) N-NO 26 0 min 0 W/m 3,1 C 5,1 C 3,2 km/h (1 Bft)
21.02.2024 00:30 5,1 C 5,1 C 87 % 1027,2 hPa 0,0 l/m 0,0 km/h (0 Bft) N-NO 32 0 min 0 W/m 3,1 C 5,1 C 1,6 km/h (1 Bft)
21.02.2024 00:25 5,2 C 5,1 C 87 % 1027,1 hPa 0,0 l/m 0,0 km/h (0 Bft) N-NO 32 0 min 0 W/m 3,2 C 5,2 C 0,0 km/h (0 Bft)
21.02.2024 00:20 5,2 C 5,1 C 87 % 1027,3 hPa 0,0 l/m 0,0 km/h (0 Bft) N-NO 32 0 min 0 W/m 3,2 C 5,2 C 1,6 km/h (1 Bft)
21.02.2024 00:15 5,2 C 5,1 C 87 % 1027,2 hPa 0,0 l/m 0,0 km/h (0 Bft) N-NO 32 0 min 0 W/m 3,2 C 5,2 C 0,0 km/h (0 Bft)
21.02.2024 00:10 5,2 C 5,2 C 87 % 1027,2 hPa 0,0 l/m 0,0 km/h (0 Bft) N-NO 32 0 min 0 W/m 3,2 C 5,2 C 0,0 km/h (0 Bft)
21.02.2024 00:05 5,2 C 5,2 C 87 % 1027,3 hPa 0,0 l/m 0,0 km/h (0 Bft) N-NO 32 0 min 0 W/m 3,2 C 5,2 C 0,0 km/h (0 Bft)
21.02.2024 00:00 5,2 C 5,2 C 87 % 1027,4 hPa 0,0 l/m 0,1 km/h (0 Bft) N-NO 32 0 min 0 W/m 3,2 C 5,2 C 1,6 km/h (1 Bft)
_ Min-Zeit 08:20 08:20 15:35 17:38 - 00:05 - - - - 08:20 08:20 00:05
Minimum _ 3,9 C 3,9 C 61 % 1014,0 hPa - 0,0 km/h (0 Bft) - - - - 2,6 C 3,9 C 0,0 km/h (0 Bft)
_ Max-Zeit 15:33 15:35 09:30 00:00 01:00 10:25 - - 00:00 00:00 12:15 15:33 10:25
Maximum _ 11,9 C 11,9 C 94 % 1027,4 hPa 0,2 l/m 3,1 km/h
O-NO (1 Bft)
- - 0 min 0 W/m 6,2 C 11,9 C 9,7 km/h
NO (2 Bft)
Durchschnitt _ 7,6 C 7,6 C 81 % 1021,8 hPa #0,2 l/m 0,1 km/h (0 Bft) N-NO - #0 min. 0 W/m 4,3 C 7,6 C 0,8 km/h (0 Bft)